Weather History for Austin, MN

Change the Weather History Date:

Wednesday, August 21, 2013

  Actual Average Record
Temperature  
Mean Temperature 75 °F -  
Max Temperature 82 °F 75 °F 84 °F (2010)
Min Temperature 68 °F 58 °F 39 °F (2004)
Cooling Degree Days 10    
Growing Degree Days 25 (Base 50)    
Moisture  
Dew Point 67 °F    
Average Humidity 76    
Maximum Humidity 94    
Minimum Humidity 58    
Precipitation  
Precipitation 0.00 in - - ()
Sea Level Pressure  
Sea Level Pressure 29.96 in    
Wind  
Wind Speed 7 mph (SSW)    
Max Wind Speed 14 mph    
Max Gust Speed 18 mph    
Visibility 9 miles    
Events Rain , Thunderstorm    
Averages and records for this station are not official NWS values.
T = Trace of Precipitation, MM = Missing Value Source: NWS Daily Summary

Daily Weather History Graph

Daily Weather History Graph

Search for Another Location

Airport:

Trip Planner

Search our weather history database for the weather conditions in past years. The results will help you decide how hot, cold, wet, or windy it might be!

Date:

Astronomy

Aug. 21, 2013 Rise Set
Actual Time 6:23 AM CDT 8:05 PM CDT
Civil Twilight 5:52 AM CDT 8:35 PM CDT
Nautical Twilight 5:15 AM CDT 9:12 PM CDT
Astronomical Twilight 4:35 AM CDT 9:52 PM CDT
Moon 8:10 PM CDT (8/21) 7:07 AM CDT (8/21)
Length of Visible Light 14h 42m
Length of Day
13h 42m
Waxing Gibbous, 99% of the Moon is Illuminated
Aug 21
Waxing Gibbous
Aug 28
Last Quarter
Sep 5
New
Sep 12
First Quarter
Sep 19
Full

Hourly Weather History & Observations

Time (CDT) Temp. Heat Index Dew Point Humidity Pressure Visibility Wind Dir Wind Speed Gust Speed Precip Events Conditions
12:16 AM 71.6 °F - 64.4 °F 78% 29.95 in 10.0 mi South 5.8 mph - N/A   Clear
12:36 AM 71.6 °F - 64.4 °F 78% 29.95 in 10.0 mi South 5.8 mph - N/A   Clear
12:56 AM 71.6 °F - 64.4 °F 78% 29.95 in 10.0 mi South 6.9 mph - N/A   Scattered Clouds
1:02 AM 71.6 °F - 64.4 °F 78% 29.95 in 10.0 mi South 6.9 mph - N/A   Scattered Clouds
1:21 AM 71.6 °F - 64.4 °F 78% 29.95 in 10.0 mi South 6.9 mph - N/A   Scattered Clouds
2:01 AM 71.6 °F - 64.4 °F 78% 29.94 in 10.0 mi South 5.8 mph - N/A   Clear
2:41 AM 69.8 °F - 64.4 °F 83% 29.95 in 10.0 mi South 5.8 mph - N/A   Mostly Cloudy
3:01 AM 71.6 °F - 64.4 °F 78% 29.95 in 10.0 mi South 6.9 mph - N/A   Mostly Cloudy
3:41 AM 69.8 °F - 64.4 °F 83% 29.95 in 10.0 mi South 5.8 mph - N/A   Clear
4:01 AM 69.8 °F - 64.4 °F 83% 29.94 in 10.0 mi South 6.9 mph - N/A   Clear
4:41 AM 69.8 °F - 64.4 °F 83% 29.93 in 10.0 mi South 6.9 mph - N/A   Clear
5:21 AM 68.0 °F - 62.6 °F 83% 29.93 in 10.0 mi South 8.1 mph - N/A   Clear
5:41 AM 68.0 °F - 62.6 °F 83% 29.93 in 10.0 mi South 6.9 mph - N/A   Clear
6:01 AM 69.8 °F - 62.6 °F 78% 29.93 in 10.0 mi South 8.1 mph - N/A   Clear
6:21 AM 68.0 °F - 62.6 °F 83% 29.93 in 10.0 mi South 9.2 mph - N/A   Clear
6:41 AM 68.0 °F - 62.6 °F 83% 29.93 in 10.0 mi South 9.2 mph - N/A   Clear
7:01 AM 69.8 °F - 62.6 °F 78% 29.93 in 10.0 mi SSW 9.2 mph - N/A   Clear
7:21 AM 69.8 °F - 62.6 °F 78% 29.94 in 10.0 mi SSW 9.2 mph - N/A   Clear
7:48 AM 71.6 °F - 64.4 °F 78% 29.94 in 10.0 mi SSW 9.2 mph - N/A   Clear
7:56 AM 71.6 °F - 64.4 °F 78% 29.94 in 10.0 mi SSW 9.2 mph - N/A   Clear
8:16 AM 71.6 °F - 64.4 °F 78% 29.94 in 10.0 mi SSW 10.4 mph - N/A   Clear
8:36 AM 73.4 °F - 64.4 °F 73% 29.94 in 10.0 mi SSW 10.4 mph - N/A   Clear
8:56 AM 73.4 °F - 64.4 °F 73% 29.94 in 10.0 mi SW 11.5 mph - N/A   Clear
9:16 AM 75.2 °F - 66.2 °F 73% 29.94 in 10.0 mi SSW 11.5 mph - N/A   Clear
9:36 AM 75.2 °F - 66.2 °F 73% 29.94 in 10.0 mi SW 12.7 mph - N/A   Clear
9:56 AM 77.0 °F - 66.2 °F 69% 29.94 in 10.0 mi SW 13.8 mph 18.4 mph N/A   Clear
10:16 AM 78.8 °F - 66.2 °F 65% 29.95 in 10.0 mi SW 12.7 mph - N/A   Clear
10:36 AM 78.8 °F - 66.2 °F 65% 29.95 in 10.0 mi SW 11.5 mph - N/A   Clear
10:56 AM 78.8 °F - 66.2 °F 65% 29.95 in 10.0 mi SW 12.7 mph - N/A   Clear
11:16 AM 80.6 °F 82.7 °F 66.2 °F 61% 29.95 in 10.0 mi SW 12.7 mph 18.4 mph N/A   Clear
11:36 AM 80.6 °F 82.7 °F 66.2 °F 61% 29.95 in 10.0 mi SW 12.7 mph 17.3 mph N/A   Clear
11:56 AM 82.4 °F 84.6 °F 66.2 °F 58% 29.95 in 10.0 mi SSW 11.5 mph - N/A   Clear
12:16 PM 82.4 °F 84.6 °F 66.2 °F 58% 29.95 in 10.0 mi SW 9.2 mph - N/A   Clear
12:36 PM 82.4 °F 84.6 °F 66.2 °F 58% 29.95 in 10.0 mi SW 12.7 mph 18.4 mph N/A   Clear
12:57 PM 82.4 °F 85.4 °F 68.0 °F 62% 29.95 in 10.0 mi SW 11.5 mph - N/A   Clear
1:16 PM 82.4 °F 85.4 °F 68.0 °F 62% 29.95 in 10.0 mi SW 12.7 mph - N/A   Clear
1:36 PM 80.6 °F 82.7 °F 66.2 °F 61% 29.96 in 10.0 mi SW 11.5 mph - N/A   Clear
1:56 PM 80.6 °F 82.7 °F 66.2 °F 61% 29.95 in 10.0 mi SW 9.2 mph - N/A   Clear
2:17 PM 80.6 °F 82.7 °F 66.2 °F 61% 29.96 in 10.0 mi SW 10.4 mph - N/A   Clear
2:36 PM 80.6 °F 82.7 °F 66.2 °F 61% 29.96 in 10.0 mi WSW 6.9 mph - N/A   Clear
2:56 PM 80.6 °F 83.2 °F 68.0 °F 65% 29.97 in 10.0 mi West 6.9 mph - N/A   Clear
3:17 PM 80.6 °F 82.7 °F 66.2 °F 61% 29.96 in 10.0 mi WSW 5.8 mph - N/A   Clear
3:36 PM 80.6 °F 83.2 °F 68.0 °F 65% 29.97 in 10.0 mi West 6.9 mph - N/A   Clear
3:56 PM 80.6 °F 83.2 °F 68.0 °F 65% 29.98 in 10.0 mi West 5.8 mph - N/A   Clear
4:17 PM 78.8 °F - 68.0 °F 69% 29.98 in 10.0 mi WSW 5.8 mph - N/A Rain Light Rain
4:36 PM 78.8 °F - 69.8 °F 74% 29.99 in 10.0 mi WNW 6.9 mph - N/A   Light Drizzle
4:56 PM 77.0 °F - 69.8 °F 78% 29.99 in 10.0 mi Calm Calm - N/A Thunderstorm Thunderstorm
5:17 PM 77.0 °F - 69.8 °F 78% 29.99 in 10.0 mi Calm Calm - N/A   Clear
5:36 PM 77.0 °F - 69.8 °F 78% 29.98 in 7.0 mi Calm Calm - N/A Thunderstorm Scattered Clouds
5:56 PM 78.8 °F - 69.8 °F 74% 29.97 in 10.0 mi South 4.6 mph - N/A   Clear
6:17 PM 78.8 °F - 71.6 °F 78% 29.97 in 10.0 mi Calm Calm - N/A   Clear
6:36 PM 78.8 °F - 69.8 °F 74% 29.96 in 10.0 mi South 3.5 mph - N/A   Clear
6:56 PM 78.8 °F - 69.8 °F 74% 29.96 in 10.0 mi South 4.6 mph - N/A   Clear
7:17 PM 78.8 °F - 71.6 °F 78% 29.97 in 10.0 mi SSE 3.5 mph - N/A   Clear
7:36 PM 77.0 °F - 71.6 °F 83% 29.97 in 10.0 mi Calm Calm - N/A   Clear
7:56 PM 77.0 °F - 71.6 °F 83% 29.98 in 7.0 mi Calm Calm - N/A   Clear
8:16 PM 75.2 °F - 69.8 °F 83% 29.98 in 10.0 mi South 3.5 mph - N/A   Clear
8:36 PM 75.2 °F - 69.8 °F 83% 30.00 in 10.0 mi North 5.8 mph - N/A   Clear
8:56 PM 73.4 °F - 69.8 °F 88% 30.01 in 7.0 mi Calm Calm - N/A   Clear
9:16 PM 73.4 °F - 69.8 °F 88% 30.01 in 7.0 mi Calm Calm - N/A   Clear
9:36 PM 73.4 °F - 69.8 °F 88% 30.01 in 7.0 mi Calm Calm - N/A   Clear
9:56 PM 71.6 °F - 69.8 °F 94% 30.01 in 4.0 mi Calm Calm - N/A   Clear
10:16 PM 71.6 °F - 69.8 °F 94% 30.01 in 4.0 mi ESE 4.6 mph - N/A   Clear
10:36 PM 71.6 °F - 69.8 °F 94% 30.01 in 4.0 mi SE 5.8 mph - N/A   Clear
10:56 PM 71.6 °F - 68.0 °F 88% 30.00 in 3.0 mi ESE 4.6 mph - N/A   Clear
11:16 PM 69.8 °F - 66.2 °F 88% 29.99 in 3.0 mi East 4.6 mph - N/A   Clear
11:36 PM 69.8 °F - 66.2 °F 88% 30.00 in 4.0 mi ESE 3.5 mph - N/A   Clear
11:56 PM 69.8 °F - 66.2 °F 88% 30.01 in 4.0 mi Calm Calm - N/A   Clear